www.pogodaiklimat.ru

Погода и климат >> Архив погоды >> Украина >> Одесса


АРХИВ ПОГОДЫ в Одессе

Время (UTC), дата Ветер
(напр.,м/с)
 
Видим.   Явления Облачность Т
(С)
Тd
(С)
f
(%)
Тe
(С)
Тes
(С)
Комфортность P
(гПа)
Po
(гПа)
Тmin
(С)
Tmax
(С)
R
(мм)
R24
(мм)
S
(см)
18 10.08 ЮВ 4 35 км ясно +29.0 +18.2 52 +34 +34 очень
душно
1015.6 1010.8 +32.6
21 10.08 СВ 2 26 км 3/0
[Ac und]
+26.3 +19.8 67 +32 +32 очень
душно
1016.4 1011.6
00 11.08 С 1 30 км 4/0
[Ac und]
+24.6 +17.5 65 +29 +29 душно 1016.6 1011.7
03 11.08 С 1 35 км 8/0
[Ac und]
+23.8 +17.2 67 +28 +28 душно 1016.5 1011.6
06 11.08 СВ 2 17 км 8/3 600 м
[Sc Ac und]
+26.2 +15.6 52 +29 +31 жарко 1016.5 1011.7 +23.4
09 11.08 В 2 20 км ясно +28.0 +15.3 46 +31 +46 душно 1016.2 1011.4
12 11.08 ЮВ 2 35 км ясно +32.6 +8.8 23 +31 +44 жарко 1015.2 1010.5
15 11.08 штиль 0 50 км 4/3 600 м
[Cu hum Ac trans]
+32.0 +8.9 24 +31 +33 жарко 1013.9 1009.2
18 11.08 З 1 19 км 3/0
[Ac trans]
+25.7 +10.7 39 +27 +27 жарко 1014.0 1009.2 +32.7
21 11.08 С 1 16 км ясно +25.0 +12.9 47 +27 +27 жарко 1014.4 1009.5
00 12.08 штиль 0 35 км ясно +22.5 +14.4 60 +26 +26 жарко 1013.7 1008.8
03 12.08 С 1 25 км ясно +21.2 +9.8 48 +23 +23 комфорт 1013.3 1008.4
06 12.08 С 1 17 км ясно +27.1 +10.3 35 +28 +35 жарко 1013.3 1008.5 +21.0
09 12.08 СВ 2 35 км ясно +29.7 +8.7 27 +29 +44 жарко 1012.9 1008.1
12 12.08 СВ 1 19 км ясно +32.6 +5.2 18 +30 +45 жарко 1011.5 1006.8
15 12.08 Ю 1 30 км ясно +32.3 +6.4 20 +30 +33 жарко 1010.1 1005.4
18 12.08 ЮЗ 1 30 км ясно +26.7 +9.1 33 +27 +27 жарко 1009.7 1004.9 +34.0
21 12.08 Ю 2 45 км ясно +26.7 +12.7 42 +28 +28 жарко 1009.4 1004.6
00 13.08 С 1 40 км 4/0
[Ac trans]
+22.6 +17.7 74 +28 +28 душно 1008.5 1003.6
03 13.08 СЗ 2 35 км 3/0
[Ac trans]
+22.2 +11.3 50 +24 +24 комфорт 1007.9 1003.0
06 13.08 СВ 4 24 км ясно +26.7 +14.1 46 +29 +33 жарко 1007.8 1003.0 +22.2
09 13.08 В 1 12 км ясно +29.0 +12.4 36 +30 +48 жарко 1007.1 1002.3
12 13.08 СВ 2 28 км 8/4 600 м
[Cu hum Ci fib]
+31.7 +12.0 30 +32 +39 жарко 1006.2 1001.5
15 13.08 СВ 3 26 км 8/3 600 м
[Sc diur, vesp Ac trans Ci fib]
+30.4 +16.8 44 +34 +35 очень
душно
1005.5 1000.8
18 13.08 З 1 12 км слабый ливневой дождь {гроза} 10/8 600 м
[Cb calv Ac trans]
+24.2 +21.7 86 +31 +31 очень
душно
1006.3 1001.5 +33.6 0.5
21 13.08 В 5 30 км {гроза, ливн. осадки} 8/4 600 м
[Sc diur, vesp Ac trans]
+26.8 +19.9 66 +33 +33 очень
душно
1006.2 1001.4
00 14.08 З 2 900 м сильная гроза, ливневой дождь 10/10 300 м
[Cb calv]
+20.4 +19.2 93 +25 +25 комфорт 1006.9 1002.0
03 14.08 СЗ 5 22 км в посл. час гроза {ливн. осадки} 10/4 300 м
[Cb calv Ac trans]
+19.8 +16.1 79 +22 +22 комфорт 1007.1 1002.2
06 14.08 С 2 25 км {гроза, ливн. осадки} 6/0
[Ac trans Ci fib]
+23.8 +17.3 67 +28 +32 душно 1007.5 1002.7 +18.1 30
09 14.08 С 2 28 км гроза, ливневой дождь 9/6 600 м
[Cb cap Ac trans]
+23.4 +17.6 70 +29 +32 душно 1008.8 1004.0
12 14.08 СЗ 2 35 км в посл. час гроза {ливн. осадки} 8/3 600 м
[Cu med, cong Ac trans Ci fib]
+24.4 +15.3 57 +27 +33 жарко 1009.2 1004.4
15 14.08 СЗ 3 35 км гроза, ливневой дождь 10/6 600 м
[Cb cap Ac trans Ci fib]
+23.5 +17.0 67 +27 +28 душно 1009.6 1004.8
18 14.08 СЗ 1 20 км гроза без осадков {ливн. осадки} 9/6 600 м
[Cb cap Ac und Ci fib]
+22.8 +17.3 71 +28 +28 душно 1011.5 1006.6 +26.7 0.4
21 14.08 З 2 16 км в посл. час гроза 8/5 600 м
[Cb cap Ac und Ci fib]
+21.8 +18.6 82 +27 +27 душно 1011.2 1006.3
00 15.08 СЗ 2 19 км гроза, ливневой дождь 9/6 300 м
[Cb cap Ac und Ci fib]
+23.1 +19.3 79 +29 +29 очень
душно
1011.8 1006.9
03 15.08 СЗ 3 35 км {гроза, ливн. осадки} 10/6 600 м
[Cb cap Ac und Ci fib]
+22.9 +18.4 76 +29 +29 очень
душно
1011.7 1006.8
06 15.08 С 4 21 км в посл. час ливневой дождь {гроза} 10/8 870 м
[Cb calv Ac und Ci fib]
+21.5 +18.7 84 +26 +27 душно 1013.2 1008.3 +20.6 0.7
09 15.08 С 1 24 км {гроза} 10/3 600 м
[Cb calv Ac und]
+26.0 +19.9 69 +32 +35 очень
душно
1014.4 1009.6
12 15.08 СВ 2 25 км {гроза} 9/3 600 м
[Cu hum Ac trans Cc]
+28.7 +18.5 54 +34 +39 очень
душно
1013.7 1008.9
15 15.08 СЗ 1 10 км в посл. час гроза {ливн. осадки} 10/4 600 м
[Cb calv Ac trans]
+22.7 +20.8 89 +30 +30 очень
душно
1014.6 1009.7
18 15.08 СЗ 2 35 км {гроза, ливн. осадки} 8/0
[Ac trans Ci fib]
+25.2 +17.1 61 +29 +29 душно 1015.0 1010.2 +30.6 0.8
21 15.08 СЗ 2 35 км 6/0
[Ac trans Ci fib]
+23.5 +14.8 58 +26 +26 жарко 1015.0 1010.1
00 16.08 С 1 45 км ясно +21.9 +15.7 68 +26 +26 душно 1015.4 1010.5
03 16.08 СЗ 1 35 км 4/0
[Ac trans]
+20.7 +14.1 66 +24 +24 комфорт 1015.5 1010.6
06 16.08 С 2 30 км 4/0
[Ac und]
+23.9 +15.6 60 +27 +31 жарко 1016.0 1011.1 +20.2
09 16.08 СВ 4 19 км 6/0
[Ac und Ci fib]
+27.7 +14.4 44 +30 +37 жарко 1016.5 1011.7
12 16.08 В 2 29 км 10/0
[Ac und Cc]
+28.8 +10.4 32 +29 +35 жарко 1015.7 1010.9
15 16.08 Ю 1 50 км 9/0
[Cc]
+29.1 +8.8 28 +29 +31 жарко 1014.8 1010.0
18 16.08 СЗ 1 19 км 8/3 600 м
[Sc Ac und Ci fib]
+23.9 +14.3 55 +26 +26 жарко 1015.4 1010.5 +30.2
21 16.08 С 2 40 км 8/0
[Ac und]
+24.3 +15.8 59 +27 +27 жарко 1015.3 1010.4
00 17.08 СЗ 2 35 км 8/0
[Ac und Ci fib]
+21.8 +16.3 71 +26 +26 душно 1014.7 1009.8
03 17.08 С 3 30 км 9/4 600 м
[Sc Ac und Ci fib]
+21.7 +14.8 65 +25 +25 комфорт 1015.0 1010.1
06 17.08 С 3 16 км 6/0
[Ac trans Ci fib]
+25.5 +13.0 46 +27 +31 жарко 1015.7 1010.8 +21.0
09 17.08 СВ 4 26 км 8/6 600 м
[Cu hum Ci fib]
+29.0 +12.8 37 +30 +34 жарко 1015.6 1010.8
12 17.08 В 2 15 км 9/4 600 м
[Sc Ac cast Ci sp]
+31.4 +7.1 22 +30 +34 жарко 1014.9 1010.1

 

Местоположение метеостанции Одесса (Одесская область, Украина): широта 46.43 долгота 30.77 высота над уровнем моря 42 м.

В архиве по умолчанию представлена погода в Одессе за последнюю неделю. Архивные данные за месяц целиком и за предыдущие месяцы, начиная с января 2011 года, Вы можете получить, выбрав интересующий диапазон дат из раскрывающегося списка и нажав кнопку "Ввод!".

Внимание! Время в таблицах - всемирное. Для получения местного времени необходимо прибавить поправку, которая в Одессе равна 2 ч.

Смотрите также архив погоды в соседних городах и на ближайших метеорологических станциях:

Погода в Ильичёвске (Одесская область, Украина) (6 км)
Погода в Белгород-Днестровском (Одесская область, Украина) (41 км)
Погода в Очакове (Николаевская область, Украина) (64 км)
Погода в Сербке (Одесская область, Украина) (66 км)
Погода в Раздельной (Одесская область, Украина) (70 км)
Погода в Заставе (Одесская область, Украина) (72 км)
Погода в Сарате (Одесская область, Украина) (96 км)
Погода в Штефан Водэ (Молдова) (99 км)
Погода в Тирасполе (Молдова) (103 км)
Погода в Николаеве (Николаевская область, Украина) (112 км)

Пояснения к столбцам:

Ветер - указаны скорость ветра в м/с - средняя за 10 мин, порывы в срок и между сроками (в фигурных скобках) и направление, откуда дует ветер: С - северный, СВ - северо-восточный, В - восточный, ЮВ - юго-восточный, Ю - южный, ЮЗ - юго-западный, З - западный, СЗ - северо-западный.
Видимость - горизонтальная дальность видимости в метрах или километрах. При видимости от 1 до 10 км при отсутствии осадков обычно наблюдается дымка, при ухудшении видимости до 1 км и менее - туман. В сухую погоду видимость может ухудшаться дымом, пылью или мглою.
Явления - указаны атмосферные явления, наблюдавшиеся в срок или в последний час перед сроком; фигурными скобками обозначены явления, наблюдавшиеся между сроками (за 1-3 часа до срока); квадратными скобками обозначены град или гололедные отложения с указанием их диаметра в мм.
Облачность - указаны через наклонную черту общая и нижняя облачность в баллах и высота нижней границы облаков в метрах; квадратными скобками обозначены формы облаков: Ci - перистые, Cs - перисто-слоистые, Cc - перисто-кучевые, Ac - высококучевые, As - высокослоистые, Sc - слоисто-кучевые, Ns - слоисто-дождевые, Cu - кучевые, Cb - кучево-дождевые. Подробнее классификацию облаков см. в Атласе облаков (PDF).
T - Температура воздуха - температура, измеренная на высоте 2 м над землей.
Td - Температура точки росы - температура, при понижении до которой содержащийся в воздухе водяной пар достигнет насыщения.
f - Относительная влажность воздуха - влажноcть воздуха, измеренная на высоте 2 м над землей.
Te - Эффективная температура - температура, которую ощущает одетый по сезону человек в тени. Характеристика душности погоды. При расчете учитывается влияние влажности воздуха и скорости ветра на теплоощущения человека.
Tes - Эффективная температура на солнце - температура, которую ощущает человек, с поправкой на солнечный нагрев. Характеристика знойности погоды. Зависит от высоты солнца над горизонтом, облачности и скорости ветра. Ночью, в пасмурную погоду, а также при ветре 12 м/с и более поправка равна нулю.
P - Атмосферное давление - приведенное к уровню моря атмосферное давление.
Po - Атмосферное давление - измеренное на уровне метеостанции атмосферное давление.
Tmin - Минимальная температура - минимум температуры воздуха на высоте 2 м над землей.
Tmax - Максимальная температура - максимум температуры воздуха на высоте 2 м над землей.
R - Количество осадков - Количество выпавших осадков за период времени, мм. При наведении курсора мыши на число - период времени, за который выпало указанное количество осадков.
R24 - Количество осадков - Количество выпавших осадков за 24 часа, мм.
S - Снежный покров - Высота снежного покрова, см. При наведении курсора мыши на число - состояние снежного покрова и степень покрытия местности в баллах.